This is the latest recevied weather packets stored in our database for station/object KK6LVQ-13. If no packets are shown the sender has not sent any weather packets the latest 10 day(s).
| Time | Temp. | Humidity | Pressure | Rain* | Wind** | Luminosity | Snow |
|---|---|---|---|---|---|---|---|
| 1777684690 | 18.89° C | 72% | 1017 hPa | 0 mm | - | 147 W/m² | - |
| 1777684387 | 18.89° C | 71% | 1016.9 hPa | 0 mm | - | 163 W/m² | - |
| 1777684084 | 18.89° C | 70% | 1016.9 hPa | 0 mm | - | 172 W/m² | - |
| 1777683780 | 19.44° C | 70% | 1016.8 hPa | 0 mm | - | 194 W/m² | - |
| 1777683477 | 19.44° C | 70% | 1017.1 hPa | 0 mm | - | 209 W/m² | - |
| 1777683175 | 19.44° C | 69% | 1016.9 hPa | 0 mm | - | 224 W/m² | - |
| 1777682872 | 20° C | 69% | 1016.9 hPa | 0 mm | - | 244 W/m² | - |
| 1777682568 | 20.56° C | 68% | 1016.8 hPa | 0 mm | - | 258 W/m² | - |
| 1777682266 | 20.56° C | 68% | 1017.1 hPa | 0 mm | - | 274 W/m² | - |
| 1777681963 | 20.56° C | 67% | 1016.9 hPa | 0 mm | - | 291 W/m² | - |
| 1777681658 | 20.56° C | 67% | 1016.7 hPa | 0 mm | - | 312 W/m² | - |
| 1777681356 | 21.11° C | 65% | 1017 hPa | 0 mm | - | 334 W/m² | - |
| 1777681053 | 21.11° C | 66% | 1016.8 hPa | 0 mm | - | 356 W/m² | - |
| 1777680752 | 21.67° C | 65% | 1016.9 hPa | 0 mm | - | 382 W/m² | - |
| 1777680449 | 21.11° C | 66% | 1016.9 hPa | 0 mm | - | 390 W/m² | - |
| 1777680147 | 21.67° C | 66% | 1016.9 hPa | 0 mm | - | 295 W/m² | - |
| 1777679842 | 21.67° C | 65% | 1016.8 hPa | 0 mm | - | 308 W/m² | - |
| 1777679538 | 21.67° C | 65% | 1017.1 hPa | 0 mm | - | 415 W/m² | - |
| 1777679234 | 22.22° C | 64% | 1017 hPa | 0 mm | - | 378 W/m² | - |
| 1777678931 | 22.22° C | 64% | 1017 hPa | 0 mm | - | 421 W/m² | - |
| 1777678629 | 22.78° C | 64% | 1017.2 hPa | 0 mm | - | 429 W/m² | - |
| 1777678326 | 22.22° C | 63% | 1017.2 hPa | 0 mm | - | 473 W/m² | - |
| 1777678022 | 22.78° C | 63% | 1017.1 hPa | 0 mm | - | 469 W/m² | - |
| 1777677720 | 22.78° C | 63% | 1017.1 hPa | 0 mm | - | 506 W/m² | - |
| 1777677417 | 22.78° C | 64% | 1017 hPa | 0 mm | - | 372 W/m² | - |
* Rain latest hour (hover to see other rain measurements)
** Current wind speed in m/s (hover to see current wind gust speed)